Le nostre stazioni meteo in Italia

Pubblicità
Il mio iltempo24.it
Arezzo, Italia (16172): Temperatura & dewpoint: 11.02.2019 13:00:00 - 17.02.2019 13:00:00 (CET)Arezzo, Italia (16172): velocità del vento: 11.02.2019 13:00:00 - 17.02.2019 13:00:00 (CET)Arezzo, Italia (16172): direzione del vento: 11.02.2019 13:00:00 - 17.02.2019 13:00:00 (CET)Arezzo, Italia (16172): reduced air pressure: 11.02.2019 13:00:00 - 17.02.2019 13:00:00 (CET)Arezzo, Italia (16172): visibility: 11.02.2019 13:00:00 - 17.02.2019 13:00:00 (CET)
Data & Tempo tt [°C] td [°C] ff [km/h] ff [kn] dd ppp [hPa] vv [km]
17.02.2019 13:00:00 13,2 0,3 0 0 N 1029,7 20
17.02.2019 12:00:00 - - - - - - -
17.02.2019 11:00:00 - - - - - - -
17.02.2019 10:00:00 5,2 1,5 0 0 N 1031,9 20
17.02.2019 09:00:00 - - - - - - -
17.02.2019 08:00:00 - - - - - - -
17.02.2019 07:00:00 -2,8 -3,2 0 0 N 1031,9 15
17.02.2019 06:00:00 - - - - - - -
17.02.2019 05:00:00 - - - - - - -
17.02.2019 04:00:00 - - - - - - -
17.02.2019 03:00:00 - - - - - - -
17.02.2019 02:00:00 - - - - - - -
17.02.2019 01:00:00 - - - - - - -
17.02.2019 00:00:00 - - - - - - -
16.02.2019 23:00:00 - - - - - - -
16.02.2019 22:00:00 - - - - - - -
16.02.2019 21:00:00 - - - - - - -
16.02.2019 20:00:00 - - - - - - -
16.02.2019 19:00:00 7,8 1,2 0 0 N 1030,0 17
16.02.2019 18:00:00 - - - - - - -
16.02.2019 17:00:00 - - - - - - -
16.02.2019 16:00:00 15,4 -2,1 8 4 NNO 1029,5 20
16.02.2019 15:00:00 - - - - - - -
16.02.2019 14:00:00 - - - - - - -
16.02.2019 13:00:00 15,6 -3,3 8 4 E 1030,7 20
16.02.2019 12:00:00 - - - - - - -
16.02.2019 11:00:00 - - - - - - -
16.02.2019 10:00:00 8,4 1,3 0 0 N 1032,0 18
16.02.2019 09:00:00 - - - - - - -
16.02.2019 08:00:00 - - - - - - -
16.02.2019 07:00:00 2,8 -0,1 0 0 N 1031,9 15
16.02.2019 06:00:00 - - - - - - -
16.02.2019 05:00:00 - - - - - - -
16.02.2019 04:00:00 - - - - - - -
16.02.2019 03:00:00 - - - - - - -
16.02.2019 02:00:00 - - - - - - -
16.02.2019 01:00:00 - - - - - - -
16.02.2019 00:00:00 - - - - - - -
15.02.2019 23:00:00 - - - - - - -
15.02.2019 22:00:00 - - - - - - -
15.02.2019 21:00:00 - - - - - - -
15.02.2019 20:00:00 - - - - - - -
15.02.2019 19:00:00 10,0 0,3 18 10 E 1030,4 18
15.02.2019 18:00:00 - - - - - - -
15.02.2019 17:00:00 - - - - - - -
15.02.2019 16:00:00 15,4 -2,5 18 10 NE 1029,3 20
15.02.2019 15:00:00 - - - - - - -
15.02.2019 14:00:00 - - - - - - -
15.02.2019 13:00:00 16,4 -2,1 8 4 NNO 1030,2 20
15.02.2019 12:00:00 - - - - - - -
15.02.2019 11:00:00 - - - - - - -
15.02.2019 10:00:00 7,6 1,4 8 4 SO 1032,4 16
15.02.2019 09:00:00 - - - - - - -
15.02.2019 08:00:00 - - - - - - -
15.02.2019 07:00:00 -1,0 -1,0 0 0 N 1033,6 12
15.02.2019 06:00:00 - - - - - - -
15.02.2019 05:00:00 - - - - - - -
15.02.2019 04:00:00 - - - - - - -
15.02.2019 03:00:00 - - - - - - -
15.02.2019 02:00:00 - - - - - - -
15.02.2019 01:00:00 - - - - - - -
15.02.2019 00:00:00 - - - - - - -
14.02.2019 23:00:00 - - - - - - -
14.02.2019 22:00:00 - - - - - - -
14.02.2019 21:00:00 - - - - - - -
14.02.2019 20:00:00 - - - - - - -
14.02.2019 19:00:00 8,0 1,0 0 0 N 1032,6 15
14.02.2019 18:00:00 - - - - - - -
14.02.2019 17:00:00 - - - - - - -
14.02.2019 16:00:00 16,4 -1,2 0 0 N 1033,8 20
14.02.2019 15:00:00 - - - - - - -
14.02.2019 14:00:00 - - - - - - -
14.02.2019 13:00:00 13,8 -0,6 0 0 N 1034,0 18
14.02.2019 12:00:00 - - - - - - -
14.02.2019 11:00:00 - - - - - - -
14.02.2019 10:00:00 5,4 -1,1 0 0 N 1036,1 18
14.02.2019 09:00:00 - - - - - - -
14.02.2019 08:00:00 - - - - - - -
14.02.2019 07:00:00 -2,4 -3,0 0 0 N 1037,4 11
14.02.2019 06:00:00 - - - - - - -
14.02.2019 05:00:00 - - - - - - -
14.02.2019 04:00:00 - - - - - - -
14.02.2019 03:00:00 - - - - - - -
14.02.2019 02:00:00 - - - - - - -
14.02.2019 01:00:00 - - - - - - -
14.02.2019 00:00:00 - - - - - - -
13.02.2019 23:00:00 - - - - - - -
13.02.2019 22:00:00 - - - - - - -
13.02.2019 21:00:00 - - - - - - -
13.02.2019 20:00:00 - - - - - - -
13.02.2019 19:00:00 7,4 -3,7 8 4 NE 1035,0 16
13.02.2019 18:00:00 - - - - - - -
13.02.2019 17:00:00 - - - - - - -
13.02.2019 16:00:00 11,4 -3,1 15 8 ENE 1034,2 20
13.02.2019 15:00:00 - - - - - - -
13.02.2019 14:00:00 - - - - - - -
13.02.2019 13:00:00 11,6 -4,1 13 7 NE 1034,3 20
13.02.2019 12:00:00 - - - - - - -
13.02.2019 11:00:00 - - - - - - -
13.02.2019 10:00:00 7,6 -3,0 11 6 NNE 1034,1 20
13.02.2019 09:00:00 - - - - - - -
13.02.2019 08:00:00 - - - - - - -
13.02.2019 07:00:00 -2,0 -2,5 0 0 N 1033,6 18
13.02.2019 06:00:00 - - - - - - -
13.02.2019 05:00:00 - - - - - - -
13.02.2019 04:00:00 - - - - - - -
13.02.2019 03:00:00 - - - - - - -
13.02.2019 02:00:00 - - - - - - -
13.02.2019 01:00:00 - - - - - - -
13.02.2019 00:00:00 - - - - - - -
12.02.2019 23:00:00 - - - - - - -
12.02.2019 22:00:00 - - - - - - -
12.02.2019 21:00:00 - - - - - - -
12.02.2019 20:00:00 - - - - - - -
12.02.2019 19:00:00 5,4 -3,4 0 0 N 1025,9 16
12.02.2019 18:00:00 - - - - - - -
12.02.2019 17:00:00 - - - - - - -
12.02.2019 16:00:00 13,2 -10,6 9 5 NNO 1023,9 20
12.02.2019 15:00:00 - - - - - - -
12.02.2019 14:00:00 - - - - - - -
12.02.2019 13:00:00 11,6 -8,8 9 5 NO 1024,7 20
12.02.2019 12:00:00 - - - - - - -
12.02.2019 11:00:00 - - - - - - -
12.02.2019 10:00:00 5,4 -3,4 0 0 N 1025,1 20
12.02.2019 09:00:00 - - - - - - -
12.02.2019 08:00:00 - - - - - - -
12.02.2019 07:00:00 -3,0 -3,7 0 0 N 1024,4 12
12.02.2019 06:00:00 - - - - - - -
12.02.2019 05:00:00 - - - - - - -
12.02.2019 04:00:00 - - - - - - -
12.02.2019 03:00:00 - - - - - - -
12.02.2019 02:00:00 - - - - - - -
12.02.2019 01:00:00 - - - - - - -
12.02.2019 00:00:00 - - - - - - -
11.02.2019 23:00:00 - - - - - - -
11.02.2019 22:00:00 - - - - - - -
11.02.2019 21:00:00 - - - - - - -
11.02.2019 20:00:00 - - - - - - -
11.02.2019 19:00:00 7,8 -5,3 0 0 N 1014,7 17
11.02.2019 18:00:00 - - - - - - -
11.02.2019 17:00:00 - - - - - - -
11.02.2019 16:00:00 11,0 -6,8 16 9 NNE 1011,6 20
11.02.2019 15:00:00 - - - - - - -
11.02.2019 14:00:00 - - - - - - -
11.02.2019 13:00:00 11,8 -1,0 15 8 NNE 1009,7 20

tt = Temperatura
td = dewpoint
ff = velocità del vento
dd = direzione del vento
ppp = reduced air pressure
vv = visibility

Stazioni seguenti

WeatherPro
AMSI
MeteoEarth